Wetterdaten: Dienstag, 10.07.2012
Datum Zeit Temperatur Luftfeuchte Regen Wind Richtung Richtung Taupunkt Windchill Windben
10.07.2012 00:00 13,9 C 88 % 0,0 l/m 0,3 km/h (0 Bft) N-NO 22 11,9 C 13,9 C 0,0 km/h (0 Bft)
10.07.2012 00:05 13,8 C 88 % 0,0 l/m 0,2 km/h (0 Bft) O-NO 67 11,8 C 13,7 C 0,0 km/h (0 Bft)
10.07.2012 00:10 13,7 C 88 % 0,0 l/m 0,0 km/h (0 Bft) NO 45 11,7 C 13,5 C 0,0 km/h (0 Bft)
10.07.2012 00:15 13,8 C 88 % 0,0 l/m 0,0 km/h (0 Bft) N-NW 337 11,8 C 13,5 C 0,0 km/h (0 Bft)
10.07.2012 00:20 14,1 C 88 % 0,0 l/m 0,0 km/h (0 Bft) W-SW 247 12,1 C 13,7 C 1,9 km/h (1 Bft)
10.07.2012 00:25 14,0 C 87 % 0,0 l/m 0,0 km/h (0 Bft) S 180 11,9 C 13,7 C 0,0 km/h (0 Bft)
10.07.2012 00:30 13,7 C 88 % 0,0 l/m 0,2 km/h (0 Bft) N-NO 22 11,7 C 13,6 C 0,0 km/h (0 Bft)
10.07.2012 00:35 13,6 C 88 % 0,0 l/m 0,0 km/h (0 Bft) N-NW 337 11,6 C 13,5 C 0,0 km/h (0 Bft)
10.07.2012 00:40 13,5 C 88 % 0,0 l/m 0,0 km/h (0 Bft) W-SW 247 11,6 C 13,2 C 0,0 km/h (0 Bft)
10.07.2012 00:45 13,2 C 88 % 0,0 l/m 0,0 km/h (0 Bft) NW 315 11,3 C 13,1 C 2,1 km/h (1 Bft)
10.07.2012 00:50 13,3 C 88 % 0,0 l/m 0,2 km/h (0 Bft) N 360 11,4 C 13,0 C 3,1 km/h (1 Bft)
10.07.2012 00:55 13,1 C 88 % 0,0 l/m 0,3 km/h (0 Bft) S 180 11,2 C 12,9 C 1,8 km/h (1 Bft)
10.07.2012 01:00 12,9 C 88 % 0,0 l/m 0,5 km/h (0 Bft) S-SO 157 11,0 C 12,9 C 0,0 km/h (0 Bft)
10.07.2012 01:05 12,9 C 89 % 0,0 l/m 0,2 km/h (0 Bft) NO 45 11,1 C 12,8 C 0,0 km/h (0 Bft)
10.07.2012 01:10 12,7 C 89 % 0,0 l/m 0,2 km/h (0 Bft) W-SW 247 10,9 C 12,7 C 0,0 km/h (0 Bft)
10.07.2012 01:15 12,7 C 89 % 0,0 l/m 0,2 km/h (0 Bft) N 360 10,9 C 12,6 C 0,0 km/h (0 Bft)
10.07.2012 01:20 12,9 C 89 % 0,0 l/m 0,0 km/h (0 Bft) W-SW 247 11,1 C 12,6 C 0,0 km/h (0 Bft)
10.07.2012 01:25 13,1 C 88 % 0,0 l/m 0,0 km/h (0 Bft) N-NO 22 11,2 C 12,7 C 0,0 km/h (0 Bft)
10.07.2012 01:30 13,1 C 88 % 0,0 l/m 0,0 km/h (0 Bft) W-SW 247 11,2 C 12,7 C 0,0 km/h (0 Bft)
10.07.2012 01:35 13,1 C 88 % 0,0 l/m 0,0 km/h (0 Bft) N-NO 22 11,2 C 12,8 C 0,0 km/h (0 Bft)
10.07.2012 01:40 13,2 C 88 % 0,0 l/m 0,0 km/h (0 Bft) O 90 11,3 C 12,9 C 0,0 km/h (0 Bft)
10.07.2012 01:45 13,4 C 88 % 0,0 l/m 0,0 km/h (0 Bft) O 90 11,5 C 13,0 C 0,0 km/h (0 Bft)
10.07.2012 01:50 13,7 C 88 % 0,0 l/m 0,0 km/h (0 Bft) NO 45 11,7 C 13,4 C 0,0 km/h (0 Bft)
10.07.2012 01:55 13,8 C 88 % 0,0 l/m 0,0 km/h (0 Bft) N-NO 22 11,8 C 13,5 C 0,0 km/h (0 Bft)
10.07.2012 02:00 13,8 C 88 % 0,0 l/m 0,6 km/h (0 Bft) W 270 11,8 C 13,6 C 4,0 km/h (1 Bft)
10.07.2012 02:05 13,7 C 87 % 0,0 l/m 0,8 km/h (0 Bft) O 90 11,6 C 13,6 C 1,9 km/h (1 Bft)
10.07.2012 02:10 13,5 C 87 % 0,0 l/m 0,6 km/h (0 Bft) S 180 11,4 C 13,5 C 0,0 km/h (0 Bft)
10.07.2012 02:15 13,4 C 87 % 0,0 l/m 0,5 km/h (0 Bft) S-SW 202 11,3 C 13,4 C 0,0 km/h (0 Bft)
10.07.2012 02:20 13,4 C 87 % 0,0 l/m 0,0 km/h (0 Bft) O-SO 112 11,3 C 13,2 C 0,0 km/h (0 Bft)
10.07.2012 02:25 13,5 C 87 % 0,0 l/m 0,5 km/h (0 Bft) O-SO 112 11,4 C 13,2 C 2,4 km/h (1 Bft)
10.07.2012 02:30 13,8 C 87 % 0,0 l/m 1,0 km/h (0 Bft) O-NO 67 11,7 C 13,5 C 2,4 km/h (1 Bft)
10.07.2012 02:35 14,0 C 87 % 0,0 l/m 1,0 km/h (0 Bft) N 360 11,9 C 13,6 C 3,2 km/h (1 Bft)
10.07.2012 02:40 14,3 C 85 % 0,0 l/m 1,0 km/h (0 Bft) NO 45 11,8 C 13,9 C 3,5 km/h (1 Bft)
10.07.2012 02:45 14,5 C 83 % 0,0 l/m 1,1 km/h (1 Bft) O 90 11,6 C 14,1 C 3,2 km/h (1 Bft)
10.07.2012 02:50 14,6 C 83 % 0,0 l/m 1,8 km/h (1 Bft) N 360 11,7 C 14,3 C 7,4 km/h (2 Bft)
10.07.2012 02:55 14,2 C 85 % 0,0 l/m 1,6 km/h (1 Bft) S-SO 157 11,7 C 14,2 C 2,4 km/h (1 Bft)
10.07.2012 03:00 13,9 C 87 % 0,0 l/m 0,8 km/h (0 Bft) O 90 11,8 C 13,8 C 0,0 km/h (0 Bft)
10.07.2012 03:05 13,8 C 88 % 0,7 l/m 0,5 km/h (0 Bft) O-SO 112 11,8 C 13,7 C 0,0 km/h (0 Bft)
10.07.2012 03:10 14,0 C 89 % 0,0 l/m 2,4 km/h (1 Bft) NO 45 12,2 C 13,6 C 11,4 km/h (2 Bft)
10.07.2012 03:15 14,0 C 89 % 0,0 l/m 3,5 km/h (1 Bft) O-SO 112 12,2 C 13,6 C 5,0 km/h (1 Bft)
10.07.2012 03:20 13,9 C 90 % 0,0 l/m 3,7 km/h (1 Bft) S-SW 202 12,3 C 13,7 C 12,6 km/h (3 Bft)
10.07.2012 03:25 13,8 C 91 % 0,0 l/m 3,2 km/h (1 Bft) N-NO 22 12,4 C 13,6 C 2,9 km/h (1 Bft)
10.07.2012 03:30 13,6 C 91 % 0,0 l/m 1,6 km/h (1 Bft) N-NO 22 12,2 C 13,4 C 2,6 km/h (1 Bft)
10.07.2012 03:35 13,3 C 91 % 0,0 l/m 1,8 km/h (1 Bft) N-NO 22 11,9 C 13,2 C 1,6 km/h (1 Bft)
10.07.2012 03:40 13,1 C 91 % 0,0 l/m 2,1 km/h (1 Bft) O 90 11,7 C 13,1 C 5,0 km/h (1 Bft)
10.07.2012 03:45 13,0 C 91 % 0,0 l/m 1,9 km/h (1 Bft) N 360 11,6 C 13,0 C 2,1 km/h (1 Bft)
10.07.2012 03:50 13,0 C 91 % 0,7 l/m 1,1 km/h (1 Bft) NO 45 11,6 C 12,9 C 2,1 km/h (1 Bft)
10.07.2012 03:55 13,0 C 91 % 0,0 l/m 1,0 km/h (0 Bft) NO 45 11,6 C 12,7 C 3,1 km/h (1 Bft)
10.07.2012 04:00 12,9 C 93 % 0,0 l/m 1,6 km/h (1 Bft) NO 45 11,8 C 12,7 C 2,7 km/h (1 Bft)
10.07.2012 04:05 12,7 C 93 % 0,0 l/m 1,4 km/h (1 Bft) N-NW 337 11,6 C 12,6 C 0,0 km/h (0 Bft)
10.07.2012 04:10 12,6 C 92 % 0,0 l/m 1,0 km/h (0 Bft) N-NW 337 11,3 C 12,5 C 0,0 km/h (0 Bft)
10.07.2012 04:15 12,5 C 93 % 0,0 l/m 0,8 km/h (0 Bft) N 360 11,4 C 12,3 C 2,1 km/h (1 Bft)
10.07.2012 04:20 12,4 C 93 % 0,0 l/m 1,1 km/h (1 Bft) O 90 11,3 C 12,2 C 0,0 km/h (0 Bft)
10.07.2012 04:25 12,4 C 93 % 0,0 l/m 1,0 km/h (0 Bft) N-NO 22 11,3 C 12,2 C 0,0 km/h (0 Bft)
10.07.2012 04:30 12,4 C 93 % 0,0 l/m 1,1 km/h (1 Bft) N-NW 337 11,3 C 12,1 C 0,0 km/h (0 Bft)
10.07.2012 04:35 12,4 C 93 % 0,0 l/m 1,3 km/h (1 Bft) N-NO 22 11,3 C 12,1 C 0,0 km/h (0 Bft)
10.07.2012 04:40 12,3 C 93 % 0,0 l/m 0,6 km/h (0 Bft) N-NO 22 11,2 C 12,0 C 0,0 km/h (0 Bft)
10.07.2012 04:45 12,3 C 93 % 0,0 l/m 0,3 km/h (0 Bft) NO 45 11,2 C 12,0 C 2,9 km/h (1 Bft)
10.07.2012 04:50 12,3 C 93 % 0,0 l/m 0,8 km/h (0 Bft) NO 45 11,2 C 12,0 C 1,8 km/h (1 Bft)
10.07.2012 04:55 12,3 C 93 % 0,0 l/m 1,1 km/h (1 Bft) O 90 11,2 C 11,9 C 2,3 km/h (1 Bft)
10.07.2012 05:00 12,1 C 93 % 0,0 l/m 1,4 km/h (1 Bft) N 360 11,0 C 11,9 C 0,0 km/h (0 Bft)
10.07.2012 05:05 12,1 C 93 % 0,0 l/m 1,8 km/h (1 Bft) S 180 11,0 C 11,7 C 0,0 km/h (0 Bft)
10.07.2012 05:10 11,7 C 93 % 0,0 l/m 1,1 km/h (1 Bft) W-NW 292 10,6 C 11,6 C 0,0 km/h (0 Bft)
10.07.2012 05:15 11,6 C 93 % 0,0 l/m 0,5 km/h (0 Bft) O-SO 112 10,5 C 11,5 C 0,0 km/h (0 Bft)
10.07.2012 05:20 11,5 C 93 % 0,0 l/m 0,3 km/h (0 Bft) N-NO 22 10,4 C 11,3 C 0,0 km/h (0 Bft)
10.07.2012 05:25 11,6 C 93 % 0,0 l/m 0,5 km/h (0 Bft) N-NW 337 10,5 C 11,2 C 2,4 km/h (1 Bft)
10.07.2012 05:30 11,6 C 94 % 0,0 l/m 0,8 km/h (0 Bft) SO 135 10,7 C 11,3 C 0,0 km/h (0 Bft)
10.07.2012 05:35 11,4 C 94 % 0,0 l/m 0,6 km/h (0 Bft) N-NO 22 10,5 C 11,2 C 0,0 km/h (0 Bft)
10.07.2012 05:40 11,4 C 94 % 0,0 l/m 1,0 km/h (0 Bft) N 360 10,5 C 11,2 C 0,0 km/h (0 Bft)
10.07.2012 05:45 11,4 C 94 % 0,0 l/m 1,1 km/h (1 Bft) S 180 10,5 C 11,2 C 0,0 km/h (0 Bft)
10.07.2012 05:50 11,4 C 94 % 0,0 l/m 0,2 km/h (0 Bft) O 90 10,5 C 11,1 C 0,0 km/h (0 Bft)
10.07.2012 05:55 11,4 C 94 % 0,0 l/m 0,2 km/h (0 Bft) O-SO 112 10,5 C 11,1 C 0,0 km/h (0 Bft)
10.07.2012 06:00 11,5 C 94 % 0,0 l/m 0,2 km/h (0 Bft) NO 45 10,6 C 11,2 C 0,0 km/h (0 Bft)
10.07.2012 06:05 11,6 C 94 % 0,0 l/m 0,3 km/h (0 Bft) W-NW 292 10,7 C 11,5 C 0,0 km/h (0 Bft)
10.07.2012 06:10 11,8 C 94 % 0,0 l/m 0,5 km/h (0 Bft) S 180 10,9 C 12,4 C 2,3 km/h (1 Bft)
10.07.2012 06:15 12,0 C 94 % 0,0 l/m 0,5 km/h (0 Bft) S 180 11,1 C 13,0 C 2,3 km/h (1 Bft)
10.07.2012 06:20 12,2 C 94 % 0,0 l/m 0,5 km/h (0 Bft) N 360 11,3 C 14,0 C 0,0 km/h (0 Bft)
10.07.2012 06:25 12,4 C 94 % 0,0 l/m 0,2 km/h (0 Bft) NO 45 11,5 C 14,6 C 1,6 km/h (1 Bft)
10.07.2012 06:30 13,4 C 93 % 0,0 l/m 0,0 km/h (0 Bft) S 180 12,3 C 15,5 C 0,0 km/h (0 Bft)
10.07.2012 06:35 13,7 C 93 % 0,0 l/m 0,0 km/h (0 Bft) S 180 12,6 C 15,8 C 0,0 km/h (0 Bft)
10.07.2012 06:40 15,3 C 92 % 0,0 l/m 0,2 km/h (0 Bft) NO 45 14,0 C 16,7 C 0,0 km/h (0 Bft)
10.07.2012 06:45 16,5 C 90 % 0,0 l/m 0,3 km/h (0 Bft) S 180 14,9 C 17,3 C 0,0 km/h (0 Bft)
10.07.2012 06:50 16,8 C 87 % 0,0 l/m 0,5 km/h (0 Bft) O 90 14,6 C 18,4 C 0,0 km/h (0 Bft)
10.07.2012 06:55 17,1 C 83 % 0,0 l/m 0,3 km/h (0 Bft) S-SW 202 14,2 C 19,0 C 1,6 km/h (1 Bft)
10.07.2012 07:00 17,5 C 79 % 0,0 l/m 0,0 km/h (0 Bft) O-SO 112 13,8 C 19,9 C 0,0 km/h (0 Bft)
10.07.2012 07:05 17,0 C 80 % 0,0 l/m 0,0 km/h (0 Bft) N-NW 337 13,5 C 19,9 C 1,6 km/h (1 Bft)
10.07.2012 07:10 18,2 C 80 % 0,0 l/m 0,2 km/h (0 Bft) W-SW 247 14,7 C 19,7 C 0,0 km/h (0 Bft)
10.07.2012 07:15 16,7 C 80 % 0,0 l/m 0,2 km/h (0 Bft) O 90 13,2 C 19,8 C 0,0 km/h (0 Bft)
10.07.2012 07:20 15,5 C 83 % 0,0 l/m 0,2 km/h (0 Bft) N-NO 22 12,6 C 18,2 C 0,0 km/h (0 Bft)
10.07.2012 07:25 17,0 C 82 % 0,0 l/m 0,2 km/h (0 Bft) NO 45 13,9 C 17,8 C 0,0 km/h (0 Bft)
10.07.2012 07:30 18,4 C 80 % 0,0 l/m 0,2 km/h (0 Bft) N-NO 22 14,9 C 19,3 C 0,0 km/h (0 Bft)
10.07.2012 07:35 19,7 C 79 % 0,0 l/m 0,3 km/h (0 Bft) S 180 16,0 C 20,4 C 2,4 km/h (1 Bft)
10.07.2012 07:40 18,5 C 76 % 0,0 l/m 0,5 km/h (0 Bft) SO 135 14,2 C 21,8 C 0,0 km/h (0 Bft)
10.07.2012 07:45 17,2 C 80 % 0,0 l/m 0,3 km/h (0 Bft) N-NW 337 13,7 C 20,5 C 0,0 km/h (0 Bft)
10.07.2012 07:50 17,2 C 82 % 0,0 l/m 0,2 km/h (0 Bft) SW 225 14,1 C 19,4 C 1,6 km/h (1 Bft)
10.07.2012 07:55 17,3 C 82 % 0,0 l/m 0,3 km/h (0 Bft) S-SO 157 14,2 C 18,9 C 1,8 km/h (1 Bft)
10.07.2012 08:00 16,8 C 81 % 0,0 l/m 0,3 km/h (0 Bft) S-SO 157 13,5 C 18,4 C 0,0 km/h (0 Bft)
10.07.2012 08:05 16,8 C 83 % 0,0 l/m 0,2 km/h (0 Bft) S-SO 157 13,9 C 18,0 C 0,0 km/h (0 Bft)
10.07.2012 08:10 16,7 C 84 % 0,0 l/m 0,0 km/h (0 Bft) S-SW 202 14,0 C 17,6 C 0,0 km/h (0 Bft)
10.07.2012 08:15 16,6 C 84 % 0,0 l/m 0,0 km/h (0 Bft) W-SW 247 13,9 C 17,5 C 0,0 km/h (0 Bft)
10.07.2012 08:20 17,4 C 84 % 0,0 l/m 0,0 km/h (0 Bft) S-SW 202 14,7 C 17,6 C 0,0 km/h (0 Bft)
10.07.2012 08:25 19,3 C 80 % 0,0 l/m 0,2 km/h (0 Bft) S 180 15,8 C 18,7 C 0,0 km/h (0 Bft)
10.07.2012 08:30 18,1 C 81 % 0,0 l/m 0,3 km/h (0 Bft) W-SW 247 14,8 C 19,6 C 0,0 km/h (0 Bft)
10.07.2012 08:35 17,5 C 81 % 0,0 l/m 0,0 km/h (0 Bft) W-SW 247 14,2 C 19,3 C 0,0 km/h (0 Bft)
10.07.2012 08:40 18,0 C 82 % 0,0 l/m 0,0 km/h (0 Bft) O 90 14,9 C 19,3 C 0,0 km/h (0 Bft)
10.07.2012 08:45 18,1 C 81 % 0,0 l/m 0,2 km/h (0 Bft) S 180 14,8 C 19,6 C 1,6 km/h (1 Bft)
10.07.2012 08:50 18,2 C 81 % 0,0 l/m 0,8 km/h (0 Bft) O-SO 112 14,9 C 19,7 C 2,9 km/h (1 Bft)
10.07.2012 08:55 17,9 C 82 % 0,0 l/m 1,6 km/h (1 Bft) O-SO 112 14,8 C 19,2 C 1,8 km/h (1 Bft)
10.07.2012 09:00 17,2 C 82 % 0,0 l/m 1,1 km/h (1 Bft) SO 135 14,1 C 18,5 C 0,0 km/h (0 Bft)
10.07.2012 09:05 16,9 C 83 % 0,0 l/m 0,2 km/h (0 Bft) O-SO 112 14,0 C 18,3 C 0,0 km/h (0 Bft)
10.07.2012 09:10 16,5 C 82 % 0,0 l/m 0,0 km/h (0 Bft) N-NO 22 13,4 C 17,7 C 0,0 km/h (0 Bft)
10.07.2012 09:15 16,2 C 82 % 0,0 l/m 0,2 km/h (0 Bft) N 360 13,1 C 17,3 C 0,0 km/h (0 Bft)
10.07.2012 09:20 16,1 C 83 % 0,0 l/m 0,5 km/h (0 Bft) N-NO 22 13,2 C 16,8 C 0,0 km/h (0 Bft)
10.07.2012 09:25 16,2 C 83 % 0,0 l/m 0,5 km/h (0 Bft) N 360 13,3 C 16,7 C 1,8 km/h (1 Bft)
10.07.2012 09:30 16,5 C 84 % 0,0 l/m 0,8 km/h (0 Bft) N-NO 22 13,8 C 16,8 C 0,0 km/h (0 Bft)
10.07.2012 09:35 16,8 C 85 % 0,0 l/m 0,8 km/h (0 Bft) N 360 14,3 C 17,0 C 0,0 km/h (0 Bft)
10.07.2012 09:40 17,3 C 85 % 0,0 l/m 0,0 km/h (0 Bft) N 360 14,8 C 17,7 C 0,0 km/h (0 Bft)
10.07.2012 09:45 17,5 C 85 % 0,0 l/m 0,0 km/h (0 Bft) W-NW 292 14,9 C 18,3 C 0,0 km/h (0 Bft)
10.07.2012 09:50 17,4 C 84 % 0,0 l/m 0,0 km/h (0 Bft) W-SW 247 14,7 C 18,5 C 0,0 km/h (0 Bft)
10.07.2012 09:55 17,4 C 82 % 0,0 l/m 0,0 km/h (0 Bft) W-NW 292 14,3 C 18,6 C 0,0 km/h (0 Bft)
10.07.2012 10:00 17,7 C 84 % 0,0 l/m 0,0 km/h (0 Bft) O 90 15,0 C 18,8 C 0,0 km/h (0 Bft)
10.07.2012 10:05 18,2 C 84 % 0,0 l/m 0,0 km/h (0 Bft) O 90 15,4 C 19,1 C 2,3 km/h (1 Bft)
10.07.2012 10:10 18,5 C 81 % 0,0 l/m 0,2 km/h (0 Bft) S 180 15,2 C 19,7 C 1,8 km/h (1 Bft)
10.07.2012 10:15 18,7 C 80 % 0,0 l/m 0,5 km/h (0 Bft) S 180 15,2 C 20,0 C 2,4 km/h (1 Bft)
10.07.2012 10:20 18,5 C 78 % 0,0 l/m 0,8 km/h (0 Bft) S-SW 202 14,6 C 20,3 C 0,0 km/h (0 Bft)
10.07.2012 10:25 18,7 C 79 % 0,0 l/m 0,5 km/h (0 Bft) O-SO 112 15,0 C 20,4 C 0,0 km/h (0 Bft)
10.07.2012 10:30 18,3 C 76 % 0,0 l/m 0,2 km/h (0 Bft) W-SW 247 14,0 C 20,5 C 0,0 km/h (0 Bft)
10.07.2012 10:35 18,2 C 76 % 0,0 l/m 0,2 km/h (0 Bft) O-SO 112 13,9 C 20,4 C 0,0 km/h (0 Bft)
10.07.2012 10:40 18,3 C 78 % 0,0 l/m 0,0 km/h (0 Bft) O-SO 112 14,4 C 20,4 C 0,0 km/h (0 Bft)
10.07.2012 10:45 18,6 C 78 % 0,0 l/m 0,2 km/h (0 Bft) SO 135 14,7 C 20,5 C 1,8 km/h (1 Bft)
10.07.2012 10:50 19,0 C 79 % 0,0 l/m 0,6 km/h (0 Bft) W-SW 247 15,3 C 20,5 C 0,0 km/h (0 Bft)
10.07.2012 10:55 19,4 C 79 % 0,0 l/m 0,5 km/h (0 Bft) S 180 15,7 C 20,7 C 0,0 km/h (0 Bft)
10.07.2012 11:00 20,0 C 76 % 0,0 l/m 0,8 km/h (0 Bft) N 360 15,6 C 21,3 C 0,0 km/h (0 Bft)
10.07.2012 11:05 20,2 C 76 % 0,0 l/m 0,8 km/h (0 Bft) S 180 15,8 C 21,8 C 2,1 km/h (1 Bft)
10.07.2012 11:10 20,3 C 75 % 0,0 l/m 0,8 km/h (0 Bft) O-SO 112 15,7 C 22,1 C 0,0 km/h (0 Bft)
10.07.2012 11:15 21,4 C 68 % 0,0 l/m 0,8 km/h (0 Bft) W 270 15,2 C 22,8 C 0,0 km/h (0 Bft)
10.07.2012 11:20 22,4 C 62 % 0,0 l/m 1,4 km/h (1 Bft) O-NO 67 15,1 C 25,3 C 4,3 km/h (1 Bft)
10.07.2012 11:25 21,7 C 60 % 0,0 l/m 2,1 km/h (1 Bft) W 270 13,6 C 25,5 C 0,0 km/h (0 Bft)
10.07.2012 11:30 21,4 C 63 % 0,0 l/m 2,7 km/h (1 Bft) S 180 14,1 C 24,5 C 2,6 km/h (1 Bft)
10.07.2012 11:35 21,3 C 61 % 0,0 l/m 3,2 km/h (1 Bft) S 180 13,5 C 23,7 C 4,0 km/h (1 Bft)
10.07.2012 11:40 21,0 C 61 % 0,0 l/m 3,7 km/h (1 Bft) S-SW 202 13,2 C 22,7 C 2,9 km/h (1 Bft)
10.07.2012 11:45 20,7 C 60 % 0,0 l/m 3,9 km/h (1 Bft) SO 135 12,7 C 22,3 C 5,3 km/h (1 Bft)
10.07.2012 11:50 20,8 C 62 % 0,0 l/m 2,7 km/h (1 Bft) SO 135 13,2 C 21,8 C 3,2 km/h (1 Bft)
10.07.2012 11:55 21,2 C 59 % 0,0 l/m 2,4 km/h (1 Bft) O-SO 112 12,9 C 22,1 C 0,0 km/h (0 Bft)
10.07.2012 12:00 22,3 C 58 % 0,0 l/m 2,1 km/h (1 Bft) S 180 13,6 C 23,0 C 3,4 km/h (1 Bft)
10.07.2012 12:05 22,0 C 58 % 0,0 l/m 2,4 km/h (1 Bft) O-SO 112 13,3 C 23,4 C 4,7 km/h (1 Bft)
10.07.2012 12:10 22,9 C 57 % 0,0 l/m 3,4 km/h (1 Bft) O 90 13,9 C 23,2 C 4,3 km/h (1 Bft)
10.07.2012 12:15 23,1 C 55 % 0,0 l/m 2,9 km/h (1 Bft) O-NO 67 13,6 C 24,0 C 1,9 km/h (1 Bft)
10.07.2012 12:20 23,1 C 52 % 0,0 l/m 3,4 km/h (1 Bft) SW 225 12,7 C 24,7 C 5,5 km/h (1 Bft)
10.07.2012 12:25 23,5 C 53 % 0,0 l/m 3,9 km/h (1 Bft) W-SW 247 13,4 C 24,7 C 4,8 km/h (1 Bft)
10.07.2012 12:30 24,0 C 55 % 0,0 l/m 2,4 km/h (1 Bft) S 180 14,4 C 25,5 C 2,1 km/h (1 Bft)
10.07.2012 12:35 23,4 C 52 % 0,0 l/m 2,1 km/h (1 Bft) W 270 13,0 C 25,7 C 5,3 km/h (1 Bft)
10.07.2012 12:40 24,3 C 54 % 0,0 l/m 2,9 km/h (1 Bft) SO 135 14,4 C 25,8 C 1,6 km/h (1 Bft)
10.07.2012 12:45 23,5 C 51 % 0,0 l/m 3,1 km/h (1 Bft) S-SW 202 12,8 C 25,9 C 2,7 km/h (1 Bft)
10.07.2012 12:50 24,0 C 52 % 0,0 l/m 2,9 km/h (1 Bft) W 270 13,5 C 25,9 C 7,7 km/h (2 Bft)
10.07.2012 12:55 23,6 C 51 % 0,0 l/m 2,7 km/h (1 Bft) N-NW 337 12,9 C 26,0 C 0,0 km/h (0 Bft)
10.07.2012 13:00 24,5 C 51 % 0,0 l/m 2,4 km/h (1 Bft) S 180 13,7 C 26,3 C 3,4 km/h (1 Bft)
10.07.2012 13:05 24,7 C 49 % 0,0 l/m 2,6 km/h (1 Bft) W 270 13,3 C 26,4 C 1,8 km/h (1 Bft)
10.07.2012 13:10 24,5 C 51 % 0,0 l/m 2,4 km/h (1 Bft) W 270 13,7 C 26,7 C 2,7 km/h (1 Bft)
10.07.2012 13:15 23,7 C 51 % 0,0 l/m 2,6 km/h (1 Bft) W-SW 247 13,0 C 26,9 C 2,4 km/h (1 Bft)
10.07.2012 13:20 24,4 C 48 % 0,0 l/m 2,3 km/h (1 Bft) SO 135 12,7 C 27,2 C 3,7 km/h (1 Bft)
10.07.2012 13:25 24,8 C 48 % 0,0 l/m 2,4 km/h (1 Bft) W-SW 247 13,0 C 27,2 C 4,2 km/h (1 Bft)
10.07.2012 13:30 25,5 C 47 % 0,0 l/m 3,4 km/h (1 Bft) W-SW 247 13,3 C 27,5 C 6,4 km/h (2 Bft)
10.07.2012 13:35 25,0 C 47 % 0,0 l/m 4,2 km/h (1 Bft) S 180 12,9 C 27,2 C 5,8 km/h (2 Bft)
10.07.2012 13:40 24,4 C 47 % 0,0 l/m 4,5 km/h (1 Bft) NO 45 12,3 C 26,7 C 1,8 km/h (1 Bft)
10.07.2012 13:45 24,3 C 46 % 0,0 l/m 2,9 km/h (1 Bft) S-SW 202 11,9 C 26,9 C 1,8 km/h (1 Bft)
10.07.2012 13:50 25,1 C 48 % 0,0 l/m 3,1 km/h (1 Bft) S-SW 202 13,3 C 27,2 C 6,0 km/h (2 Bft)
10.07.2012 13:55 24,5 C 49 % 0,0 l/m 4,5 km/h (1 Bft) W-NW 292 13,1 C 26,7 C 4,5 km/h (1 Bft)
10.07.2012 14:00 23,3 C 51 % 0,0 l/m 4,0 km/h (1 Bft) W-SW 247 12,6 C 25,5 C 4,0 km/h (1 Bft)
10.07.2012 14:05 24,1 C 48 % 0,0 l/m 3,4 km/h (1 Bft) W-NW 292 12,4 C 25,7 C 4,8 km/h (1 Bft)
10.07.2012 14:10 25,0 C 49 % 0,0 l/m 3,5 km/h (1 Bft) W-NW 292 13,5 C 26,7 C 4,2 km/h (1 Bft)
10.07.2012 14:15 24,7 C 47 % 0,0 l/m 3,9 km/h (1 Bft) N 360 12,6 C 26,9 C 1,6 km/h (1 Bft)
10.07.2012 14:20 25,0 C 48 % 0,0 l/m 3,7 km/h (1 Bft) W 270 13,2 C 27,5 C 4,2 km/h (1 Bft)
10.07.2012 14:25 24,2 C 50 % 0,0 l/m 3,2 km/h (1 Bft) W-SW 247 13,1 C 27,2 C 7,6 km/h (2 Bft)
10.07.2012 14:30 25,4 C 46 % 0,0 l/m 3,9 km/h (1 Bft) S 180 12,9 C 26,9 C 4,0 km/h (1 Bft)
10.07.2012 14:35 24,7 C 45 % 0,0 l/m 3,9 km/h (1 Bft) N 360 12,0 C 27,4 C 3,7 km/h (1 Bft)
10.07.2012 14:40 25,8 C 47 % 0,0 l/m 3,2 km/h (1 Bft) W 270 13,6 C 28,4 C 5,8 km/h (2 Bft)
10.07.2012 14:45 25,3 C 45 % 0,0 l/m 3,7 km/h (1 Bft) W 270 12,5 C 28,3 C 7,2 km/h (2 Bft)
10.07.2012 14:50 23,4 C 48 % 0,0 l/m 4,2 km/h (1 Bft) W 270 11,8 C 26,8 C 5,1 km/h (1 Bft)
10.07.2012 14:55 24,4 C 48 % 0,0 l/m 3,1 km/h (1 Bft) W-SW 247 12,7 C 26,4 C 1,9 km/h (1 Bft)
10.07.2012 15:00 24,3 C 49 % 0,0 l/m 1,8 km/h (1 Bft) S 180 12,9 C 27,7 C 3,1 km/h (1 Bft)
10.07.2012 15:05 25,7 C 47 % 0,0 l/m 1,4 km/h (1 Bft) S 180 13,5 C 27,6 C 2,4 km/h (1 Bft)
10.07.2012 15:10 26,3 C 46 % 0,0 l/m 2,4 km/h (1 Bft) SO 135 13,7 C 28,8 C 5,0 km/h (1 Bft)
10.07.2012 15:15 25,8 C 48 % 0,0 l/m 2,7 km/h (1 Bft) N-NO 22 13,9 C 29,4 C 2,6 km/h (1 Bft)
10.07.2012 15:20 24,6 C 47 % 0,0 l/m 2,4 km/h (1 Bft) N 360 12,5 C 28,4 C 2,9 km/h (1 Bft)
10.07.2012 15:25 25,5 C 46 % 0,0 l/m 1,9 km/h (1 Bft) N-NW 337 13,0 C 28,3 C 1,6 km/h (1 Bft)
10.07.2012 15:30 26,1 C 41 % 0,0 l/m 2,6 km/h (1 Bft) W-SW 247 11,8 C 29,2 C 3,4 km/h (1 Bft)
10.07.2012 15:35 25,2 C 44 % 0,0 l/m 3,9 km/h (1 Bft) S 180 12,1 C 29,2 C 9,2 km/h (2 Bft)
10.07.2012 15:40 24,3 C 48 % 0,0 l/m 4,2 km/h (1 Bft) SO 135 12,6 C 27,6 C 0,0 km/h (0 Bft)
10.07.2012 15:45 24,2 C 49 % 0,0 l/m 3,4 km/h (1 Bft) S 180 12,8 C 27,1 C 3,9 km/h (1 Bft)
10.07.2012 15:50 23,7 C 49 % 0,0 l/m 2,9 km/h (1 Bft) W 270 12,3 C 26,3 C 6,4 km/h (2 Bft)
10.07.2012 15:55 23,0 C 54 % 0,0 l/m 4,2 km/h (1 Bft) W 270 13,2 C 25,4 C 4,0 km/h (1 Bft)
10.07.2012 16:00 22,4 C 58 % 0,0 l/m 4,0 km/h (1 Bft) N-NO 22 13,7 C 24,3 C 0,0 km/h (0 Bft)
10.07.2012 16:05 22,2 C 59 % 0,0 l/m 2,4 km/h (1 Bft) N-NW 337 13,8 C 24,0 C 3,7 km/h (1 Bft)
10.07.2012 16:10 22,0 C 59 % 0,0 l/m 1,6 km/h (1 Bft) NO 45 13,6 C 23,5 C 0,0 km/h (0 Bft)
10.07.2012 16:15 22,0 C 60 % 0,0 l/m 2,1 km/h (1 Bft) N 360 13,9 C 23,5 C 3,1 km/h (1 Bft)
10.07.2012 16:20 22,3 C 59 % 0,0 l/m 1,9 km/h (1 Bft) N-NO 22 13,9 C 23,5 C 2,3 km/h (1 Bft)
10.07.2012 16:25 22,6 C 62 % 0,0 l/m 2,1 km/h (1 Bft) N 360 14,9 C 23,8 C 0,0 km/h (0 Bft)
10.07.2012 16:30 23,8 C 58 % 0,0 l/m 1,1 km/h (1 Bft) W-NW 292 15,0 C 24,9 C 1,6 km/h (1 Bft)
10.07.2012 16:35 23,9 C 58 % 0,0 l/m 1,6 km/h (1 Bft) N-NW 337 15,1 C 26,0 C 6,1 km/h (2 Bft)
10.07.2012 16:40 23,6 C 56 % 0,0 l/m 1,9 km/h (1 Bft) N-NO 22 14,3 C 26,1 C 0,0 km/h (0 Bft)
10.07.2012 16:45 23,2 C 57 % 0,0 l/m 2,4 km/h (1 Bft) NW 315 14,2 C 26,1 C 2,4 km/h (1 Bft)
10.07.2012 16:50 22,8 C 58 % 0,0 l/m 1,6 km/h (1 Bft) NW 315 14,1 C 25,6 C 2,4 km/h (1 Bft)
10.07.2012 16:55 22,5 C 60 % 0,0 l/m 1,1 km/h (1 Bft) N 360 14,3 C 25,0 C 2,3 km/h (1 Bft)
10.07.2012 17:00 21,6 C 65 % 0,0 l/m 1,6 km/h (1 Bft) N 360 14,7 C 24,0 C 2,1 km/h (1 Bft)
10.07.2012 17:05 21,1 C 66 % 0,0 l/m 1,3 km/h (1 Bft) N-NO 22 14,5 C 23,2 C 0,0 km/h (0 Bft)
10.07.2012 17:10 20,6 C 68 % 0,0 l/m 0,2 km/h (0 Bft) N-NW 337 14,5 C 22,6 C 0,0 km/h (0 Bft)
10.07.2012 17:15 20,4 C 67 % 0,0 l/m 0,0 km/h (0 Bft) N-NO 22 14,1 C 22,3 C 0,0 km/h (0 Bft)
10.07.2012 17:20 20,3 C 73 % 0,0 l/m 0,0 km/h (0 Bft) NO 45 15,3 C 21,8 C 0,0 km/h (0 Bft)
10.07.2012 17:25 20,2 C 73 % 0,0 l/m 0,0 km/h (0 Bft) N-NO 22 15,2 C 21,4 C 0,0 km/h (0 Bft)
10.07.2012 17:30 20,1 C 74 % 0,0 l/m 0,0 km/h (0 Bft) NO 45 15,3 C 21,2 C 0,0 km/h (0 Bft)
10.07.2012 17:35 20,1 C 77 % 0,0 l/m 0,0 km/h (0 Bft) NO 45 15,9 C 21,2 C 0,0 km/h (0 Bft)
10.07.2012 17:40 20,4 C 77 % 0,0 l/m 0,5 km/h (0 Bft) O-NO 67 16,2 C 20,9 C 0,0 km/h (0 Bft)
10.07.2012 17:45 21,5 C 76 % 0,0 l/m 0,5 km/h (0 Bft) N 360 17,1 C 21,5 C 2,1 km/h (1 Bft)
10.07.2012 17:50 22,1 C 72 % 0,0 l/m 0,8 km/h (0 Bft) S-SO 157 16,8 C 24,4 C 3,4 km/h (1 Bft)
10.07.2012 17:55 22,3 C 69 % 0,0 l/m 1,6 km/h (1 Bft) SO 135 16,3 C 24,4 C 2,3 km/h (1 Bft)
10.07.2012 18:00 22,1 C 68 % 0,0 l/m 2,7 km/h (1 Bft) O-SO 112 15,9 C 24,0 C 5,6 km/h (1 Bft)
10.07.2012 18:05 21,8 C 69 % 0,0 l/m 3,2 km/h (1 Bft) O-SO 112 15,9 C 23,4 C 4,0 km/h (1 Bft)
10.07.2012 18:10 21,7 C 68 % 0,0 l/m 3,5 km/h (1 Bft) O-SO 112 15,5 C 23,0 C 6,9 km/h (2 Bft)
10.07.2012 18:15 21,7 C 68 % 0,0 l/m 3,4 km/h (1 Bft) O-SO 112 15,5 C 23,3 C 5,3 km/h (1 Bft)
10.07.2012 18:20 21,8 C 66 % 0,0 l/m 4,5 km/h (1 Bft) O-SO 112 15,2 C 23,4 C 3,4 km/h (1 Bft)
10.07.2012 18:25 21,5 C 66 % 0,0 l/m 4,8 km/h (1 Bft) O 90 14,9 C 23,0 C 6,3 km/h (2 Bft)
10.07.2012 18:30 21,1 C 67 % 0,0 l/m 4,0 km/h (1 Bft) O 90 14,7 C 22,1 C 8,4 km/h (2 Bft)
10.07.2012 18:35 20,9 C 67 % 0,0 l/m 4,7 km/h (1 Bft) SO 135 14,5 C 21,8 C 6,9 km/h (2 Bft)
10.07.2012 18:40 21,0 C 67 % 0,0 l/m 6,0 km/h (2 Bft) O-SO 112 14,6 C 21,5 C 17,2 km/h (3 Bft)
10.07.2012 18:45 19,6 C 64 % 0,0 l/m 9,3 km/h (2 Bft) S-SW 202 12,6 C 19,4 C 8,9 km/h (2 Bft)
10.07.2012 18:50 18,3 C 69 % 0,0 l/m 10,6 km/h (2 Bft) SO 135 12,5 C 17,2 C 24,9 km/h (4 Bft)
10.07.2012 18:55 18,9 C 69 % 0,0 l/m 6,6 km/h (2 Bft) SO 135 13,1 C 19,2 C 4,2 km/h (1 Bft)
10.07.2012 19:00 18,6 C 69 % 0,0 l/m 3,9 km/h (1 Bft) S-SW 202 12,8 C 19,6 C 2,1 km/h (1 Bft)
10.07.2012 19:05 18,7 C 70 % 0,0 l/m 2,7 km/h (1 Bft) SO 135 13,1 C 19,5 C 2,3 km/h (1 Bft)
10.07.2012 19:10 19,1 C 70 % 0,0 l/m 1,9 km/h (1 Bft) SO 135 13,5 C 21,3 C 4,7 km/h (1 Bft)
10.07.2012 19:15 18,8 C 71 % 0,0 l/m 2,4 km/h (1 Bft) SO 135 13,4 C 21,5 C 2,9 km/h (1 Bft)
10.07.2012 19:20 18,5 C 71 % 0,0 l/m 2,7 km/h (1 Bft) SO 135 13,1 C 20,8 C 3,4 km/h (1 Bft)
10.07.2012 19:25 18,5 C 72 % 0,0 l/m 2,4 km/h (1 Bft) S-SO 157 13,4 C 20,9 C 5,6 km/h (1 Bft)
10.07.2012 19:30 18,2 C 73 % 0,0 l/m 2,4 km/h (1 Bft) W-SW 247 13,3 C 20,2 C 0,0 km/h (0 Bft)
10.07.2012 19:35 18,3 C 73 % 0,0 l/m 1,6 km/h (1 Bft) N-NO 22 13,4 C 20,0 C 0,0 km/h (0 Bft)
10.07.2012 19:40 18,7 C 73 % 0,0 l/m 1,4 km/h (1 Bft) S-SO 157 13,8 C 20,2 C 2,4 km/h (1 Bft)
10.07.2012 19:45 18,7 C 73 % 0,0 l/m 2,1 km/h (1 Bft) O 90 13,8 C 20,1 C 4,2 km/h (1 Bft)
10.07.2012 19:50 18,3 C 73 % 0,0 l/m 1,8 km/h (1 Bft) W 270 13,4 C 19,5 C 2,1 km/h (1 Bft)
10.07.2012 19:55 18,1 C 74 % 0,0 l/m 1,6 km/h (1 Bft) O-NO 67 13,4 C 19,3 C 0,0 km/h (0 Bft)
10.07.2012 20:00 17,9 C 75 % 0,0 l/m 1,1 km/h (1 Bft) NO 45 13,4 C 19,0 C 0,0 km/h (0 Bft)
10.07.2012 20:05 18,0 C 75 % 0,0 l/m 0,3 km/h (0 Bft) NO 45 13,5 C 18,9 C 0,0 km/h (0 Bft)
10.07.2012 20:10 18,3 C 75 % 0,0 l/m 0,0 km/h (0 Bft) O 90 13,8 C 20,1 C 2,4 km/h (1 Bft)
10.07.2012 20:15 18,6 C 74 % 0,0 l/m 0,6 km/h (0 Bft) O-SO 112 13,9 C 20,3 C 1,8 km/h (1 Bft)
10.07.2012 20:20 18,7 C 74 % 0,0 l/m 1,1 km/h (1 Bft) SO 135 14,0 C 21,1 C 1,8 km/h (1 Bft)
10.07.2012 20:25 19,0 C 73 % 0,0 l/m 0,8 km/h (0 Bft) S 180 14,0 C 21,5 C 2,1 km/h (1 Bft)
10.07.2012 20:30 18,9 C 72 % 0,0 l/m 1,6 km/h (1 Bft) O-SO 112 13,7 C 21,3 C 2,7 km/h (1 Bft)
10.07.2012 20:35 18,4 C 73 % 0,0 l/m 1,4 km/h (1 Bft) NO 45 13,5 C 20,8 C 1,6 km/h (1 Bft)
10.07.2012 20:40 17,8 C 74 % 0,0 l/m 0,5 km/h (0 Bft) N-NO 22 13,1 C 19,7 C 0,0 km/h (0 Bft)
10.07.2012 20:45 17,4 C 76 % 0,0 l/m 0,5 km/h (0 Bft) N-NO 22 13,1 C 18,9 C 3,7 km/h (1 Bft)
10.07.2012 20:50 17,0 C 78 % 0,0 l/m 1,6 km/h (1 Bft) N-NW 337 13,1 C 17,9 C 2,6 km/h (1 Bft)
10.07.2012 20:55 16,8 C 78 % 0,0 l/m 2,1 km/h (1 Bft) N-NW 337 12,9 C 17,5 C 2,7 km/h (1 Bft)
10.07.2012 21:00 16,6 C 78 % 0,0 l/m 1,0 km/h (0 Bft) N 360 12,7 C 17,0 C 0,0 km/h (0 Bft)
10.07.2012 21:05 16,6 C 77 % 0,0 l/m 1,1 km/h (1 Bft) N-NO 22 12,5 C 16,7 C 2,4 km/h (1 Bft)
10.07.2012 21:10 16,3 C 78 % 0,0 l/m 1,3 km/h (1 Bft) N-NW 337 12,5 C 16,3 C 3,4 km/h (1 Bft)
10.07.2012 21:15 16,0 C 79 % 0,0 l/m 1,1 km/h (1 Bft) NO 45 12,4 C 16,1 C 0,0 km/h (0 Bft)
10.07.2012 21:20 15,7 C 79 % 0,0 l/m 1,4 km/h (1 Bft) N 360 12,1 C 15,7 C 0,0 km/h (0 Bft)
10.07.2012 21:25 15,7 C 79 % 0,0 l/m 0,8 km/h (0 Bft) NO 45 12,1 C 15,5 C 0,0 km/h (0 Bft)
10.07.2012 21:30 15,5 C 81 % 0,0 l/m 0,2 km/h (0 Bft) NO 45 12,3 C 15,3 C 0,0 km/h (0 Bft)
10.07.2012 21:35 15,6 C 82 % 0,0 l/m 0,0 km/h (0 Bft) W 270 12,5 C 15,3 C 0,0 km/h (0 Bft)
10.07.2012 21:40 15,6 C 82 % 0,0 l/m 0,0 km/h (0 Bft) NO 45 12,5 C 15,3 C 0,0 km/h (0 Bft)
10.07.2012 21:45 15,6 C 82 % 0,0 l/m 0,0 km/h (0 Bft) N 360 12,5 C 15,3 C 0,0 km/h (0 Bft)
10.07.2012 21:50 15,6 C 82 % 0,0 l/m 0,0 km/h (0 Bft) N 360 12,5 C 15,3 C 0,0 km/h (0 Bft)
10.07.2012 21:55 15,6 C 83 % 0,0 l/m 0,0 km/h (0 Bft) O 90 12,7 C 15,3 C 0,0 km/h (0 Bft)
10.07.2012 22:00 15,6 C 83 % 0,0 l/m 0,5 km/h (0 Bft) NO 45 12,7 C 15,4 C 2,7 km/h (1 Bft)
10.07.2012 22:05 15,7 C 83 % 0,0 l/m 0,8 km/h (0 Bft) NO 45 12,8 C 15,4 C 3,2 km/h (1 Bft)
10.07.2012 22:10 15,7 C 83 % 0,0 l/m 0,8 km/h (0 Bft) N 360 12,8 C 15,5 C 0,0 km/h (0 Bft)
10.07.2012 22:15 15,5 C 83 % 0,0 l/m 0,3 km/h (0 Bft) NO 45 12,6 C 15,4 C 0,0 km/h (0 Bft)
10.07.2012 22:20 15,0 C 83 % 0,0 l/m 0,3 km/h (0 Bft) SO 135 12,1 C 14,9 C 2,3 km/h (1 Bft)
10.07.2012 22:25 14,8 C 84 % 0,0 l/m 0,5 km/h (0 Bft) N 360 12,1 C 14,7 C 0,0 km/h (0 Bft)
10.07.2012 22:30 14,6 C 85 % 0,0 l/m 0,3 km/h (0 Bft) N-NO 22 12,1 C 14,3 C 0,0 km/h (0 Bft)
10.07.2012 22:35 14,7 C 85 % 0,0 l/m 0,0 km/h (0 Bft) N 360 12,2 C 14,2 C 0,0 km/h (0 Bft)
10.07.2012 22:40 14,5 C 85 % 0,0 l/m 0,0 km/h (0 Bft) N-NO 22 12,0 C 14,0 C 0,0 km/h (0 Bft)
10.07.2012 22:45 14,4 C 85 % 0,0 l/m 0,0 km/h (0 Bft) N 360 11,9 C 13,8 C 0,0 km/h (0 Bft)
10.07.2012 22:50 14,2 C 86 % 0,0 l/m 0,0 km/h (0 Bft) O-SO 112 11,9 C 13,7 C 0,0 km/h (0 Bft)
10.07.2012 22:55 14,5 C 87 % 0,0 l/m 0,5 km/h (0 Bft) N 360 12,4 C 13,7 C 2,4 km/h (1 Bft)
10.07.2012 23:00 14,6 C 87 % 0,0 l/m 0,8 km/h (0 Bft) N-NO 22 12,5 C 13,9 C 0,0 km/h (0 Bft)
10.07.2012 23:05 14,6 C 87 % 0,0 l/m 0,6 km/h (0 Bft) N 360 12,5 C 14,1 C 0,0 km/h (0 Bft)
10.07.2012 23:10 14,7 C 87 % 0,0 l/m 0,8 km/h (0 Bft) N-NO 22 12,6 C 14,3 C 0,0 km/h (0 Bft)
10.07.2012 23:15 14,6 C 87 % 0,0 l/m 0,5 km/h (0 Bft) N 360 12,5 C 14,3 C 0,0 km/h (0 Bft)
10.07.2012 23:20 14,5 C 87 % 0,0 l/m 0,3 km/h (0 Bft) S 180 12,4 C 14,4 C 0,0 km/h (0 Bft)
10.07.2012 23:25 14,4 C 87 % 0,0 l/m 0,3 km/h (0 Bft) NO 45 12,3 C 14,5 C 0,0 km/h (0 Bft)
10.07.2012 23:30 14,6 C 87 % 0,0 l/m 0,2 km/h (0 Bft) O-SO 112 12,5 C 14,6 C 1,9 km/h (1 Bft)
10.07.2012 23:35 14,8 C 87 % 0,0 l/m 0,2 km/h (0 Bft) N 360 12,7 C 14,7 C 0,0 km/h (0 Bft)
10.07.2012 23:40 15,0 C 86 % 0,0 l/m 0,2 km/h (0 Bft) N-NO 22 12,7 C 14,8 C 0,0 km/h (0 Bft)
10.07.2012 23:45 15,0 C 86 % 0,0 l/m 0,0 km/h (0 Bft) N-NW 337 12,7 C 14,9 C 0,0 km/h (0 Bft)
10.07.2012 23:50 15,0 C 86 % 0,0 l/m 0,0 km/h (0 Bft) S-SO 157 12,7 C 14,9 C 0,0 km/h (0 Bft)
10.07.2012 23:55 15,1 C 86 % 0,0 l/m 0,0 km/h (0 Bft) O-SO 112 12,8 C 15,0 C 0,0 km/h (0 Bft)
_ Min-Zeit 05:55 15:30 - 23:55 - - 05:20 05:55 23:55
Minimum _ 11,4 C 41 % - 0,0 km/h (0 Bft) - - 10,4 C 11,1 C 0,0 km/h (0 Bft)
_ Max-Zeit 15:10 06:25 03:50 18:50 - - 17:45 15:15 18:50
Maximum _ 26,3 C 94 % 0,7 l/m 10,6 km/h
SO (2 Bft)
- - 17,1 C 29,4 C 24,9 km/h
SO (4 Bft)
Durchschnitt _ 17,8 C 76 % #1,4 l/m 1,4 km/h (1 Bft) SO - 13,0 C 18,8 C 1,9 km/h (1 Bft)